Location: Zapote
(9.9191°N, 84.0597°W)
Time: 17:43:28
(UTC-06:00)

Transit 2A - Pass Details

Date: 01 March 2021
Orbit: 602 x 957 km, 66.7° (Epoch: 16 April)

Event Time Altitude Azimuth Distance (km) Brightness Sun altitude
Rises 16:13:14 0° 171° (S) 3,571 9.5 21.9°
Reaches altitude 10° 16:16:31 10° 155° (SSE) 2,585 8.7 21.1°
Maximum altitude 16:20:47 20° 110° (ESE) 1,888 7.7 20.1°
Drops below altitude 10° 16:24:50 10° 64° (ENE) 2,432 8.1 19.1°
Sets 16:27:46 0° 47° (NE) 3,296 8.8 18.4°
